Regional Weather Roundup
Issued by NWS

Home | Current Version | Previous Version | Text Only | Print | Product List | Glossary On
Versions: 1 2 3 4 5 6 7 8 9 10 11 12 13 14 15 16 17 18 19 20 21 22 23 24 25 26 27 28 29 30 31 32 33 34 35 36 37 38 39 40 41 42 43 44 45 46 47 48 49 50
000
ASUS43 KBIS 251402
RWRND

NORTH DAKOTA REGIONAL WEATHER ROUNDUP
NATIONAL WEATHER SERVICE BISMARCK ND
800 AM CST SUN FEB 25 2018

NOTE: "FAIR" INDICATES FEW OR NO CLOUDS BELOW 12,000 FEET WITH NO
SIGNIFICANT WEATHER AND/OR OBSTRUCTIONS TO VISIBILITY.


NDZ001>003-009>011-017-251500-
NORTHWEST NORTH DAKOTA

CITY           SKY/WX    TMP DP  RH WIND       PRES   REMARKS
WILLISTON      CLOUDY    12   7  80 SW9       29.65R WCI   0
MINOT          CLOUDY    19  12  74 W16       29.57R WCI   4
MINOT AFB      CLOUDY    18  13  80 W7          N/A  WCI   9
$$

NDZ018>021-031>035-040>046-251500-
SOUTHWEST NORTH DAKOTA

CITY           SKY/WX    TMP DP  RH WIND       PRES   REMARKS
BISMARCK       PTCLDY    22  16  78 W23       29.65R WCI   6
DICKINSON      CLEAR     14   8  77 W18       29.62R WCI  -3
GARRISON         N/A     19  14  81 W16       29.61R WCI   4
HETTINGER ARPT CLEAR     10   4  76 W12       29.68R WCI  -5
$$

NDZ004>008-012>016-024-026-027-054-251500-
NORTHEAST NORTH DAKOTA

CITY           SKY/WX    TMP DP  RH WIND       PRES   REMARKS
GRAND FORKS    FAIR       8   5  87 W12       29.53R WCI  -7
GRND FRKS AFB  FAIR       8   4  84 W6        29.52R WCI  -2
DEVILS LAKE    CLOUDY    20  17  88 W15       29.53R WCI   6
$$

NDZ022-023-025-028>030-036>039-047>053-251500-
SOUTHEAST NORTH DAKOTA

CITY           SKY/WX    TMP DP  RH WIND       PRES   REMARKS
FARGO          CLOUDY    18  13  80 SW12      29.58R WCI   5
JAMESTOWN      MOCLDY    20  16  84 W18       29.57R WCI   5
$$





USA.gov is the U.S. government's official web portal to all federal, state and local government web resources and services.